| time (UTC) | temp F | wind direction | speed knots | gust knots | rain 1hr in | rain 24hr in | rain mn in | humidity % | barometer mb |
| 20260504175331 | 71 | 204 | 8.7 | 20.9 | 0.00 | 0.00 | 0.00 | 32 | 1011.8 |
| 20260504174832 | 71 | 215 | 7.8 | 20.9 | 0.00 | 0.00 | 0.00 | 33 | 1011.8 |
| 20260504174331 | 71 | 197 | 7.0 | 21.7 | 0.00 | 0.00 | 0.00 | 33 | 1011.8 |
| 20260504174104 | 71 | 171 | 8.7 | 21.7 | 0.00 | 0.00 | 0.00 | 34 | 1011.9 |
| 20260504173329 | 70 | 214 | 8.7 | 19.1 | 0.00 | 0.00 | 0.00 | 32 | 1012.0 |
| 20260504172830 | 70 | 150 | 7.0 | 16.5 | 0.00 | 0.00 | 0.00 | 33 | 1011.9 |
| 20260504172600 | 71 | 244 | 7.0 | 20.9 | 0.00 | 0.00 | 0.00 | 33 | 1012.2 |
| 20260504171829 | 70 | 180 | 7.0 | 20.9 | 0.00 | 0.00 | 0.00 | 35 | 1012.2 |
| 20260504171329 | 71 | 234 | 6.1 | 15.6 | 0.00 | 0.00 | 0.00 | 34 | 1012.3 |
| 20260504170829 | 70 | 244 | 7.8 | 17.4 | 0.00 | 0.00 | 0.00 | 34 | 1012.4 |
| 20260504170328 | 70 | 209 | 7.0 | 17.4 | 0.00 | 0.00 | 0.00 | 33 | 1012.6 |
| 20260504160321 | 68 | 244 | 8.7 | 16.5 | 0.00 | 0.00 | 0.00 | 38 | 1013.1 |
| 20260504150809 | 65 | 201 | 7.0 | 13.9 | 0.00 | 0.00 | 0.00 | 44 | 1013.6 |
| 20260504150302 | 64 | 146 | 7.8 | 14.8 | 0.00 | 0.00 | 0.00 | 46 | 1013.7 |
| 20260504141232 | 61 | 198 | 8.7 | 16.5 | 0.00 | 0.00 | 0.00 | 55 | 1013.9 |
| 20260504140731 | 61 | 206 | 8.7 | 16.5 | 0.00 | 0.00 | 0.00 | 55 | 1013.9 |
| 20260504140501 | 61 | 199 | 7.8 | 15.6 | 0.00 | 0.00 | 0.00 | 56 | 1013.9 |
| 20260504130719 | 58 | 206 | 9.6 | 16.5 | 0.00 | 0.00 | 0.00 | 62 | 1014.3 |
| 20260504130213 | 58 | 181 | 8.7 | 16.5 | 0.00 | 0.00 | 0.00 | 62 | 1014.4 |
| 20260504110455 | 52 | 219 | 5.2 | 9.6 | 0.00 | 0.00 | 0.00 | 75 | 1015.0 |
| 20260504100343 | 50 | 224 | 6.1 | 9.6 | 0.00 | 0.00 | 0.00 | 72 | 1015.1 |
| 20260504081648 | 49 | 231 | 2.6 | 5.2 | 0.00 | 0.00 | 0.00 | 64 | 1014.8 |
| 20260504081146 | 49 | 231 | 2.6 | 5.2 | 0.00 | 0.00 | 0.00 | 65 | 1014.8 |
| 20260504080644 | 49 | 254 | 2.6 | 4.3 | 0.00 | 0.00 | 0.00 | 65 | 1014.8 |
| 20260504080144 | 49 | 254 | 2.6 | 4.3 | 0.00 | 0.00 | 0.00 | 65 | 1014.8 |
| 20260504070139 | 49 | 254 | 0.9 | 1.7 | 0.00 | 0.00 | 0.00 | 60 | 1014.6 |
| 20260504050516 | 53 | 219 | 3.5 | 7.0 | 0.00 | 0.00 | 0.00 | 44 | 1014.5 |
| 20260504050244 | 53 | 225 | 3.5 | 7.0 | 0.00 | 0.00 | 0.00 | 44 | 1014.5 |
| 20260504045514 | 53 | 229 | 3.5 | 8.7 | 0.00 | 0.00 | 0.00 | 44 | 1014.5 |
| 20260504045014 | 54 | 219 | 3.5 | 8.7 | 0.00 | 0.00 | 0.00 | 44 | 1014.4 |
| 20260504044511 | 54 | 226 | 3.5 | 7.8 | 0.00 | 0.00 | 0.00 | 44 | 1014.4 |
| 20260504044013 | 54 | 248 | 3.5 | 7.0 | 0.00 | 0.00 | 0.00 | 43 | 1014.4 |
| 20260504043513 | 54 | 225 | 3.5 | 6.1 | 0.00 | 0.00 | 0.00 | 44 | 1014.4 |
| 20260504043013 | 54 | 212 | 3.5 | 6.1 | 0.00 | 0.00 | 0.00 | 43 | 1014.3 |
| 20260504042512 | 54 | 218 | 3.5 | 7.8 | 0.00 | 0.00 | 0.00 | 43 | 1014.2 |
| 20260504042012 | 54 | 216 | 3.5 | 7.8 | 0.00 | 0.00 | 0.00 | 43 | 1014.1 |
| 20260504041512 | 54 | 236 | 3.5 | 7.8 | 0.00 | 0.00 | 0.00 | 43 | 1014.0 |
| 20260504041012 | 54 | 233 | 3.5 | 8.7 | 0.00 | 0.00 | 0.00 | 42 | 1013.9 |
| 20260504040512 | 55 | 232 | 4.3 | 8.7 | 0.00 | 0.00 | 0.00 | 42 | 1013.9 |
| 20260504040012 | 55 | 227 | 4.3 | 8.7 | 0.00 | 0.00 | 0.00 | 42 | 1013.9 |
| 20260504035511 | 55 | 268 | 4.3 | 8.7 | 0.00 | 0.00 | 0.00 | 42 | 1013.9 |
| 20260504035011 | 55 | 248 | 3.5 | 7.8 | 0.00 | 0.00 | 0.00 | 42 | 1013.8 |
| 20260504034511 | 55 | 224 | 3.5 | 7.0 | 0.00 | 0.00 | 0.00 | 42 | 1013.9 |
| 20260504034012 | 55 | 238 | 4.3 | 9.6 | 0.00 | 0.00 | 0.00 | 41 | 1013.7 |
| 20260504033511 | 55 | 236 | 4.3 | 9.6 | 0.00 | 0.00 | 0.00 | 41 | 1013.7 |
| 20260504033011 | 55 | 226 | 4.3 | 7.8 | 0.00 | 0.00 | 0.00 | 41 | 1013.7 |
| 20260504032512 | 55 | 215 | 3.5 | 7.8 | 0.00 | 0.00 | 0.00 | 41 | 1013.7 |
| 20260504032012 | 55 | 236 | 4.3 | 7.8 | 0.00 | 0.00 | 0.00 | 41 | 1013.7 |
| 20260504031744 | 55 | 223 | 4.3 | 7.8 | 0.00 | 0.00 | 0.00 | 41 | 1013.7 |
| 20260504031013 | 55 | 247 | 3.5 | 7.8 | 0.00 | 0.00 | 0.00 | 41 | 1013.7 |
| 20260504030512 | 56 | 253 | 4.3 | 8.7 | 0.00 | 0.00 | 0.00 | 40 | 1013.6 |
| 20260504030013 | 56 | 246 | 4.3 | 8.7 | 0.00 | 0.00 | 0.00 | 40 | 1013.7 |
| 20260504025512 | 56 | 236 | 3.5 | 7.8 | 0.00 | 0.00 | 0.00 | 40 | 1013.7 |
| 20260504025243 | 56 | 242 | 4.3 | 7.8 | 0.00 | 0.00 | 0.00 | 40 | 1013.8 |
| 20260504024506 | 56 | 241 | 4.3 | 7.8 | 0.00 | 0.00 | 0.00 | 40 | 1013.8 |
| 20260504024007 | 56 | 248 | 3.5 | 7.8 | 0.00 | 0.00 | 0.00 | 40 | 1013.8 |
| 20260504023507 | 56 | 227 | 3.5 | 7.8 | 0.00 | 0.00 | 0.00 | 40 | 1013.7 |
| 20260504023006 | 56 | 246 | 3.5 | 7.8 | 0.00 | 0.00 | 0.00 | 40 | 1013.6 |
| 20260504022506 | 56 | 249 | 4.3 | 7.8 | 0.00 | 0.00 | 0.00 | 39 | 1013.8 |
| 20260504022007 | 56 | 225 | 4.3 | 7.8 | 0.00 | 0.00 | 0.00 | 39 | 1013.8 |
| 20260504021504 | 56 | 198 | 3.5 | 9.6 | 0.00 | 0.00 | 0.00 | 39 | 1013.8 |
| 20260504021234 | 56 | 223 | 3.5 | 9.6 | 0.00 | 0.00 | 0.00 | 39 | 1013.7 |
| 20260504020504 | 56 | 227 | 3.5 | 6.1 | 0.00 | 0.00 | 0.00 | 39 | 1013.7 |
| 20260504020005 | 56 | 217 | 3.5 | 6.1 | 0.00 | 0.00 | 0.00 | 39 | 1013.7 |
| 20260504015503 | 56 | 213 | 3.5 | 7.0 | 0.00 | 0.00 | 0.00 | 39 | 1013.7 |
| 20260504015002 | 56 | 227 | 3.5 | 7.0 | 0.00 | 0.00 | 0.00 | 39 | 1013.7 |
| 20260504014459 | 56 | 229 | 2.6 | 7.0 | 0.00 | 0.00 | 0.00 | 39 | 1013.6 |
| 20260504014000 | 56 | 231 | 2.6 | 6.1 | 0.00 | 0.00 | 0.00 | 38 | 1013.7 |
| 20260504013459 | 56 | 225 | 2.6 | 6.1 | 0.00 | 0.00 | 0.00 | 38 | 1013.6 |
| 20260504012959 | 57 | 223 | 2.6 | 6.1 | 0.00 | 0.00 | 0.00 | 38 | 1013.6 |
| 20260504012500 | 57 | 238 | 2.6 | 6.1 | 0.00 | 0.00 | 0.00 | 38 | 1013.5 |
| 20260504011958 | 57 | 236 | 2.6 | 6.1 | 0.00 | 0.00 | 0.00 | 38 | 1013.4 |
| 20260504011459 | 57 | 232 | 2.6 | 6.1 | 0.00 | 0.00 | 0.00 | 37 | 1013.4 |
| 20260504010951 | 57 | 221 | 2.6 | 7.0 | 0.00 | 0.00 | 0.00 | 37 | 1013.3 |
| 20260504010446 | 57 | 248 | 2.6 | 7.8 | 0.00 | 0.00 | 0.00 | 37 | 1013.3 |
| 20260504010210 | 57 | 244 | 2.6 | 7.8 | 0.00 | 0.00 | 0.00 | 36 | 1013.2 |
| 20260504005434 | 58 | 250 | 2.6 | 7.0 | 0.00 | 0.00 | 0.00 | 36 | 1013.2 |
| 20260504004927 | 58 | 194 | 2.6 | 7.0 | 0.00 | 0.00 | 0.00 | 36 | 1013.1 |
| 20260504004421 | 58 | 232 | 2.6 | 7.0 | 0.00 | 0.00 | 0.00 | 36 | 1013.0 |
| 20260504003916 | 58 | 223 | 2.6 | 7.0 | 0.00 | 0.00 | 0.00 | 36 | 1013.0 |
| 20260504003410 | 58 | 248 | 3.5 | 6.1 | 0.00 | 0.00 | 0.00 | 35 | 1012.8 |
| 20260504003134 | 58 | 250 | 3.5 | 7.0 | 0.00 | 0.00 | 0.00 | 35 | 1012.9 |
| 20260504002357 | 58 | 249 | 2.6 | 8.7 | 0.00 | 0.00 | 0.00 | 34 | 1012.8 |
| 20260504001852 | 58 | 252 | 2.6 | 8.7 | 0.00 | 0.00 | 0.00 | 35 | 1012.8 |
| 20260504001345 | 59 | 252 | 4.3 | 8.7 | 0.00 | 0.00 | 0.00 | 34 | 1012.7 |
| 20260504000839 | 59 | 244 | 5.2 | 8.7 | 0.00 | 0.00 | 0.00 | 34 | 1012.7 |
| 20260504000334 | 59 | 269 | 5.2 | 8.7 | 0.00 | 0.00 | 0.00 | 33 | 1012.7 |
| 20260503235827 | 59 | 269 | 5.2 | 9.6 | 0.00 | 0.00 | 0.00 | 33 | 1012.6 |
| 20260503235321 | 59 | 243 | 5.2 | 9.6 | 0.00 | 0.00 | 0.00 | 32 | 1012.6 |
| 20260503235046 | 59 | 250 | 5.2 | 11.3 | 0.00 | 0.00 | 0.00 | 32 | 1012.6 |
| 20260503234309 | 59 | 236 | 6.1 | 11.3 | 0.00 | 0.00 | 0.00 | 32 | 1012.5 |
| 20260503233803 | 60 | 263 | 6.1 | 11.3 | 0.00 | 0.00 | 0.00 | 32 | 1012.5 |
| 20260503233258 | 60 | 281 | 6.1 | 12.2 | 0.00 | 0.00 | 0.00 | 32 | 1012.3 |
| 20260503232751 | 60 | 282 | 6.1 | 13.9 | 0.00 | 0.00 | 0.00 | 31 | 1012.3 |
| 20260503232246 | 60 | 263 | 7.0 | 14.8 | 0.00 | 0.00 | 0.00 | 31 | 1012.2 |
| 20260503231739 | 60 | 290 | 7.0 | 14.8 | 0.00 | 0.00 | 0.00 | 31 | 1012.3 |
| 20260503231505 | 60 | 268 | 6.1 | 12.2 | 0.00 | 0.00 | 0.00 | 31 | 1012.3 |
| 20260503230730 | 60 | 243 | 7.8 | 13.0 | 0.00 | 0.00 | 0.00 | 30 | 1012.2 |
| 20260503230723 | 61 | 271 | 8.7 | 16.5 | 0.00 | 0.00 | 0.00 | 30 | 1012.2 |
| 20260503225715 | 61 | 284 | 7.8 | 16.5 | 0.00 | 0.00 | 0.00 | 30 | 1012.2 |
| 20260503225210 | 61 | 290 | 7.8 | 15.6 | 0.00 | 0.00 | 0.00 | 30 | 1012.2 |
| 20260503224703 | 61 | 281 | 7.8 | 15.6 | 0.00 | 0.00 | 0.00 | 29 | 1012.2 |
| 20260503224158 | 61 | 271 | 7.8 | 14.8 | 0.00 | 0.00 | 0.00 | 29 | 1012.1 |
| 20260503223651 | 61 | 231 | 8.7 | 18.2 | 0.00 | 0.00 | 0.00 | 29 | 1012.2 |
| 20260503223146 | 61 | 254 | 7.8 | 18.2 | 0.00 | 0.00 | 0.00 | 29 | 1012.2 |
| 20260503222639 | 61 | 277 | 7.0 | 15.6 | 0.00 | 0.00 | 0.00 | 29 | 1012.0 |
| 20260503222134 | 61 | 273 | 7.8 | 15.6 | 0.00 | 0.00 | 0.00 | 29 | 1012.2 |
| 20260503221628 | 61 | 272 | 8.7 | 16.5 | 0.00 | 0.00 | 0.00 | 29 | 1012.2 |
| 20260503221122 | 61 | 319 | 9.6 | 21.7 | 0.00 | 0.00 | 0.00 | 29 | 1012.1 |
| 20260503220615 | 61 | 278 | 7.8 | 21.7 | 0.00 | 0.00 | 0.00 | 29 | 1012.1 |
| 20260503220110 | 61 | 322 | 6.1 | 14.8 | 0.00 | 0.00 | 0.00 | 30 | 1012.1 |
| 20260503215603 | 61 | 267 | 7.8 | 14.8 | 0.00 | 0.00 | 0.00 | 30 | 1012.2 |
| 20260503215058 | 61 | 273 | 7.8 | 14.8 | 0.00 | 0.00 | 0.00 | 29 | 1012.2 |
| 20260503214551 | 61 | 273 | 7.0 | 14.8 | 0.00 | 0.00 | 0.00 | 31 | 1012.2 |
| 20260503214045 | 61 | 261 | 6.1 | 14.8 | 0.00 | 0.00 | 0.00 | 30 | 1012.1 |
| 20260503213540 | 61 | 304 | 7.0 | 14.8 | 0.00 | 0.00 | 0.00 | 30 | 1012.1 |
| 20260503213034 | 61 | 265 | 7.8 | 14.8 | 0.00 | 0.00 | 0.00 | 29 | 1012.1 |
| 20260503212527 | 61 | 296 | 8.7 | 15.6 | 0.00 | 0.00 | 0.00 | 30 | 1012.2 |
| 20260503212022 | 61 | 244 | 8.7 | 15.6 | 0.00 | 0.00 | 0.00 | 29 | 1012.1 |
| 20260503211515 | 62 | 290 | 7.8 | 17.4 | 0.00 | 0.00 | 0.00 | 29 | 1012.1 |
| 20260503211010 | 61 | 303 | 7.8 | 20.0 | 0.00 | 0.00 | 0.00 | 29 | 1012.2 |
| 20260503210503 | 61 | 308 | 8.7 | 20.0 | 0.00 | 0.00 | 0.00 | 31 | 1012.3 |
| 20260503205957 | 61 | 306 | 11.3 | 20.0 | 0.00 | 0.00 | 0.00 | 29 | 1012.3 |
| 20260503205452 | 61 | 265 | 11.3 | 24.3 | 0.00 | 0.00 | 0.00 | 29 | 1012.1 |
| 20260503204945 | 61 | 269 | 9.6 | 24.3 | 0.00 | 0.00 | 0.00 | 29 | 1012.2 |
| 20260503204439 | 61 | 269 | 7.8 | 15.6 | 0.00 | 0.00 | 0.00 | 30 | 1012.3 |
| 20260503203935 | 61 | 273 | 7.0 | 15.6 | 0.00 | 0.00 | 0.00 | 30 | 1012.5 |
| 20260503203928 | 61 | 267 | 7.8 | 17.4 | 0.00 | 0.00 | 0.00 | 30 | 1012.5 |
| 20260503202920 | 61 | 284 | 10.4 | 26.1 | 0.00 | 0.00 | 0.00 | 31 | 1012.4 |
| 20260503202414 | 61 | 289 | 11.3 | 26.1 | 0.00 | 0.00 | 0.00 | 30 | 1012.4 |
| 20260503201913 | 60 | 275 | 9.6 | 20.9 | 0.00 | 0.00 | 0.00 | 31 | 1012.4 |
| 20260503201643 | 60 | 298 | 8.7 | 20.9 | 0.00 | 0.00 | 0.00 | 32 | 1012.4 |
| 20260503201144 | 60 | 326 | 9.6 | 20.9 | 0.00 | 0.00 | 0.00 | 31 | 1012.5 |
| 20260503200411 | 60 | 304 | 9.6 | 20.9 | 0.00 | 0.00 | 0.00 | 31 | 1012.4 |
| 20260503195912 | 60 | 268 | 10.4 | 20.9 | 0.00 | 0.00 | 0.00 | 30 | 1012.4 |
| 20260503195412 | 61 | 267 | 10.4 | 23.5 | 0.00 | 0.00 | 0.00 | 30 | 1012.5 |
| 20260503194912 | 60 | 275 | 11.3 | 23.5 | 0.00 | 0.00 | 0.00 | 31 | 1012.5 |
| 20260503194643 | 60 | 279 | 9.6 | 17.4 | 0.00 | 0.00 | 0.00 | 31 | 1012.5 |
| 20260503193911 | 60 | 298 | 9.6 | 17.4 | 0.00 | 0.00 | 0.00 | 33 | 1012.7 |
| 20260503193411 | 60 | 329 | 11.3 | 23.5 | 0.00 | 0.00 | 0.00 | 33 | 1012.7 |
| 20260503193144 | 60 | 324 | 11.3 | 23.5 | 0.00 | 0.00 | 0.00 | 31 | 1012.7 |
| 20260503192410 | 60 | 323 | 11.3 | 23.5 | 0.00 | 0.00 | 0.00 | 31 | 1012.8 |
| 20260503192142 | 60 | 335 | 11.3 | 23.5 | 0.00 | 0.00 | 0.00 | 31 | 1012.9 |
| 20260503191411 | 60 | 292 | 8.7 | 19.1 | 0.00 | 0.00 | 0.00 | 32 | 1012.9 |
| 20260503190909 | 59 | 281 | 7.8 | 19.1 | 0.00 | 0.00 | 0.00 | 34 | 1012.7 |
| 20260503190409 | 60 | 271 | 8.7 | 16.5 | 0.00 | 0.00 | 0.00 | 32 | 1012.9 |
| 20260503185909 | 60 | 284 | 8.7 | 23.5 | 0.00 | 0.00 | 0.00 | 33 | 1012.9 |
| 20260503185409 | 60 | 277 | 8.7 | 23.5 | 0.00 | 0.00 | 0.00 | 34 | 1013.0 |
| 20260503185139 | 60 | 296 | 11.3 | 23.5 | 0.00 | 0.00 | 0.00 | 30 | 1013.1 |
| 20260503184640 | 60 | 314 | 13.0 | 23.5 | 0.00 | 0.00 | 0.00 | 33 | 1013.1 |
| 20260503183908 | 60 | 301 | 10.4 | 20.0 | 0.00 | 0.00 | 0.00 | 31 | 1013.2 |
| 20260503183408 | 60 | 294 | 9.6 | 17.4 | 0.00 | 0.00 | 0.00 | 34 | 1013.2 |
| 20260503182909 | 60 | 296 | 9.6 | 16.5 | 0.00 | 0.00 | 0.00 | 32 | 1013.2 |
| 20260503182406 | 60 | 327 | 8.7 | 14.8 | 0.00 | 0.00 | 0.00 | 33 | 1013.1 |
| 20260503181905 | 60 | 328 | 7.8 | 14.8 | 0.00 | 0.00 | 0.00 | 34 | 1013.3 |
| 20260503181406 | 59 | 340 | 7.0 | 14.8 | 0.00 | 0.00 | 0.00 | 35 | 1013.1 |
| 20260503180905 | 58 | 307 | 8.7 | 18.2 | 0.00 | 0.00 | 0.00 | 33 | 1013.2 |
| 20260503180405 | 58 | 275 | 9.6 | 18.2 | 0.00 | 0.00 | 0.00 | 32 | 1013.1 |
| 20260503175904 | 58 | 296 | 9.6 | 19.1 | 0.00 | 0.00 | 0.00 | 34 | 1013.3 |